Radioactive Concentration measured by Seawater Radiation Monitor near Fukushima Daiichi Nuclear Power Station
Date,Time,Cs137(Bq/L),Cs134(Bq/L),Total β(Bq/L)
2016/10/19,00:00,0.67,0.074,ND
2016/10/19,00:10,0.69,0.062,ND
2016/10/19,00:20,0.68,0.054,ND
2016/10/19,00:30,0.68,0.053,ND
2016/10/19,00:40,0.68,0.054,ND
2016/10/19,00:50,0.66,0.054,ND
2016/10/19,01:00,0.66,0.060,ND
2016/10/19,01:10,0.65,0.056,ND
2016/10/19,01:20,0.65,0.054,ND
2016/10/19,01:30,0.67,0.067,ND
2016/10/19,01:40,0.67,0.069,ND
2016/10/19,01:50,0.67,0.068,ND
2016/10/19,02:00,0.64,0.072,ND
2016/10/19,02:10,0.65,0.069,ND
2016/10/19,02:20,0.63,0.079,ND
2016/10/19,02:30,0.64,0.073,ND
2016/10/19,02:40,0.60,0.061,ND
2016/10/19,02:50,0.65,0.077,ND
2016/10/19,03:00,0.63,0.065,ND
2016/10/19,03:10,0.61,0.080,ND
2016/10/19,03:20,0.61,0.083,ND
2016/10/19,03:30,0.65,0.093,ND
2016/10/19,03:40,0.64,0.086,ND
2016/10/19,03:50,0.63,0.085,ND
2016/10/19,04:00,0.62,0.090,ND
2016/10/19,04:10,0.62,0.084,ND
2016/10/19,04:20,0.63,0.075,ND
2016/10/19,04:30,0.62,0.086,ND
2016/10/19,04:40,0.62,0.084,ND
2016/10/19,04:50,0.63,0.084,ND
2016/10/19,05:00,0.64,0.077,ND
2016/10/19,05:10,0.62,0.071,ND
2016/10/19,05:20,0.60,0.057,ND
2016/10/19,05:30,0.61,0.064,ND
2016/10/19,05:40,0.58,0.055,ND
2016/10/19,05:50,0.57,0.052,ND
2016/10/19,06:00,0.56,0.059,ND
2016/10/19,06:10,0.60,0.075,ND
2016/10/19,06:20,0.59,0.074,ND
2016/10/19,06:30,0.61,0.083,ND
2016/10/19,06:40,0.61,0.084,ND
2016/10/19,06:50,0.65,0.079,ND
2016/10/19,07:00,0.67,0.068,ND
2016/10/19,07:10,0.66,0.073,ND
2016/10/19,07:20,0.67,0.073,ND
2016/10/19,07:30,0.66,0.067,ND
2016/10/19,07:40,0.61,0.056,ND
2016/10/19,07:50,0.63,0.068,ND
2016/10/19,08:00,0.62,0.074,ND
2016/10/19,08:10,0.62,0.070,ND
2016/10/19,08:20,0.61,0.071,ND
2016/10/19,08:30,0.61,0.073,ND
2016/10/19,08:40,0.60,0.062,ND
2016/10/19,08:50,0.57,0.067,ND
2016/10/19,09:00,0.56,0.067,ND
2016/10/19,09:10,0.57,0.066,ND
2016/10/19,09:20,0.58,0.065,ND
2016/10/19,09:30,0.58,0.060,ND
2016/10/19,09:40,0.60,0.050,ND
2016/10/19,09:50,0.61,0.057,ND
2016/10/19,10:00,0.63,0.047,ND
2016/10/19,10:10,0.63,0.052,ND
2016/10/19,10:20,0.64,0.051,ND
2016/10/19,10:30,0.67,0.052,ND
2016/10/19,10:40,0.69,0.071,ND
2016/10/19,10:50,0.71,0.068,ND
2016/10/19,11:00,0.69,0.071,ND
2016/10/19,11:10,0.67,0.057,ND
2016/10/19,11:20,0.69,0.062,ND
2016/10/19,11:30,0.65,0.054,ND
2016/10/19,11:40,0.64,0.056,ND
2016/10/19,11:50,0.62,0.050,ND
2016/10/19,12:00,0.62,0.052,ND
2016/10/19,12:10,0.61,0.053,ND
2016/10/19,12:20,0.61,0.058,ND
2016/10/19,12:30,0.61,0.055,ND
2016/10/19,12:40,0.64,0.045,ND
2016/10/19,12:50,0.62,0.054,ND
2016/10/19,13:00,0.62,0.054,ND
2016/10/19,13:10,0.63,0.052,ND
2016/10/19,13:20,0.63,0.053,ND
2016/10/19,13:30,0.63,0.087,ND
2016/10/19,13:40,0.64,0.058,ND
2016/10/19,13:50,0.67,0.055,ND
2016/10/19,14:00,0.67,0.057,ND
2016/10/19,14:10,0.65,0.068,ND
2016/10/19,14:20,0.67,0.062,ND
2016/10/19,14:30,0.67,0.064,ND
2016/10/19,14:40,0.68,0.053,ND
2016/10/19,14:50,0.67,0.057,ND
2016/10/19,15:00,0.67,0.056,ND
2016/10/19,15:10,0.66,0.059,ND
2016/10/19,15:20,0.64,0.057,ND
2016/10/19,15:30,0.62,0.062,ND
2016/10/19,15:40,0.59,0.061,ND
2016/10/19,15:50,0.60,0.058,ND
2016/10/19,16:00,0.60,0.060,ND
2016/10/19,16:10,0.60,0.062,ND
2016/10/19,16:20,0.62,0.062,ND
2016/10/19,16:30,0.63,0.067,ND
2016/10/19,16:40,0.64,0.066,ND
2016/10/19,16:50,0.62,0.070,ND
2016/10/19,17:00,0.59,0.078,ND
2016/10/19,17:10,0.61,0.068,ND
2016/10/19,17:20,0.62,0.061,ND
2016/10/19,17:30,0.64,0.077,ND
2016/10/19,17:40,0.65,0.083,ND
2016/10/19,17:50,0.63,0.083,ND
2016/10/19,18:00,0.66,0.070,ND
2016/10/19,18:10,0.65,0.083,ND
2016/10/19,18:20,0.62,0.088,ND
2016/10/19,18:30,0.64,0.085,ND
2016/10/19,18:40,0.64,0.081,ND
2016/10/19,18:50,0.66,0.085,ND
2016/10/19,19:00,0.65,0.070,ND
2016/10/19,19:10,0.62,0.076,ND
2016/10/19,19:20,0.62,0.078,ND
2016/10/19,19:30,0.63,0.074,ND
2016/10/19,19:40,0.61,0.072,ND
2016/10/19,19:50,0.60,0.075,ND
2016/10/19,20:00,0.58,0.080,ND
2016/10/19,20:10,0.61,0.078,ND
2016/10/19,20:20,0.65,0.067,ND
2016/10/19,20:30,0.61,0.12,ND
2016/10/19,20:40,0.64,0.12,ND
2016/10/19,20:50,0.71,0.087,ND
2016/10/19,21:00,0.71,0.075,ND
2016/10/19,21:10,0.69,0.086,ND
2016/10/19,21:20,0.69,0.080,ND
2016/10/19,21:30,0.72,0.068,ND
2016/10/19,21:40,0.72,0.063,ND
2016/10/19,21:50,0.71,0.067,ND
2016/10/19,22:00,0.71,0.071,ND
2016/10/19,22:10,0.70,0.065,ND
2016/10/19,22:20,0.70,0.073,ND
2016/10/19,22:30,0.71,0.069,ND
2016/10/19,22:40,0.68,0.073,ND
2016/10/19,22:50,0.70,0.082,ND
2016/10/19,23:00,0.69,0.074,ND
2016/10/19,23:10,0.65,0.061,ND
2016/10/19,23:20,0.67,0.074,ND
2016/10/19,23:30,0.64,0.085,ND
2016/10/19,23:40,0.67,0.080,ND
2016/10/19,23:50,0.67,0.082,ND
